Regional Weather Roundup
Issued by NWS Newport/Morehead, NC

Current Version | Previous Version | Text Only | Print | Product List | Glossary On
Versions: 1 2 3 4 5 6 7 8 9 10 11 12 13 14 15 16 17 18 19 20 21 22 23 24 25 26 27 28 29 30 31 32 33 34 35 36 37 38 39 40 41 42 43 44 45 46 47 48 49 50
000
ASUS42 KMHX 041325
RWRMHX
WEATHER ROUNDUP FOR EASTERN NORTH CAROLINA
NATIONAL WEATHER SERVICE NEWPORT/MOREHEAD CITY NC
900 AM EDT WED MAY 04 2016

NOTE: "FAIR" INDICATES FEW OR NO CLOUDS BELOW 12,000 FEET
WITH NO SIGNIFICANT WEATHER AND/OR OBSTRUCTIONS TO VISIBILITY

NCZ015>017-031-032-045>047-102-103-041400-
NORTH COAST

CITY           SKY/WX    TMP DP  RH WIND       PRES   REMARKS
EDENTON        CLOUDY    65  65 100 N6        29.68F FOG
ELIZABETH CITY CLOUDY    58  56  93 NE12      29.69R
KITTY HAWK     FOG       60  60 100 NE5       29.68F VSB 1
MANTEO         CLOUDY    59  59 100 E7        29.69F FOG

$$

NCZ045>047-081-094-103-104-041400-
CENTRAL COAST

CITY           SKY/WX    TMP DP  RH WIND       PRES   REMARKS
FRISCO         CLOUDY    68  67  96 W6        29.68F
SWANQUARTER    NOT AVBL

$$

NCZ095-097-098-100-101-041400-
SOUTHERN COAST

CITY           SKY/WX    TMP DP  RH WIND       PRES   REMARKS
BEAUFORT       PTSUNNY   70  66  87 W9        29.66F
CEDAR ISLAND   NOT AVBL
JACKSONVILLE   PTSUNNY   69  65  86 CALM      29.65F
PINEY ISLAND   NOT AVBL
WILMINGTON     CLOUDY    68  66  93 SW7       29.69R


$$

NCZ011>013-027>030-043-044-078>080-089-090>093-098-041400-
COASTAL PLAIN

CITY           SKY/WX    TMP DP  RH WIND       PRES   REMARKS
AHOSKIE        DRIZZLE   61  60  97 NE3       29.69F
CLINTON        CLOUDY    65  62  89 N3        29.69S
ELIZABETHTOWN  CLOUDY    66  63  89 NW5       29.68F
GOLDSBORO      CLOUDY    62  62 100 N6        29.67F
GREENVILLE     CLOUDY    63  63 100 NE6       29.71F
HAVELOCK       CLOUDY    70  64  81 N7        29.68F
KENANSVILLE    CLOUDY    66  61  84 CALM      29.69S
KINSTON        CLOUDY    64  63  94 N6        29.68F FOG
NEW BERN       LGT RAIN  64  63  96 CALM      29.68F
RICHLANDS      CLOUDY    66  65  96 CALM      29.68F
ROCKY MOUNT    CLOUDY    62  60  93 N6        29.69S
WASHINGTON     CLOUDY    64  62  94 CALM      29.68S
WHITEVILLE     NOT AVBL

$$

AMZ130-135-150-152-154-156-158-170-250-252-270-ANZ085-086-088-633-658-670-041400-
MARINE OBSERVATIONS

STATION/POSITION TIME  TEMP    WIND        PRES    WAVE   SWELL
                       AIR SEA DIR/SP/G            HT/PER HT/PER
                 (UTC) (F)     (DEG/KT/KT) (MB)    (FT/S) (FT/S)
CHESAPEAKE LIGHT 1300   53      50/ 12/ 13 1006.2
64 E VA BEACH    1250   56 55   90/  4/  4 1004.9    4/ 7   3/ 7
DUCK             NOT AVBL
2 E DUCK         1211      58                N/A     3/ 6
OREGON INLET     1300   60 69   30/  8/  9 1004.8
13E OREGON INLT  1300      63                N/A     4/ 7   3/ 7
HATTERAS CG      1300   70 69  230/  6/ 10 1004.3
DIAMOND BUOY     1250   71 72  230/ 14/ 16 1005.0    3/ 6   2/ 8
CAPE LOOKOUT     1300   70     240/  9/ 12 1004.0
BEAUFORT LAB     1300   69 66  240/  3/  8 1003.7
30 SE NEW RVR IN 1225      73                N/A     5/ 6
27 SE WRIGHTSVLE 1308   70 72  240/ 16/ 21   N/A
5 SE WRIGHTSVLE  1208   69 69  230/  8/ 12 1005.8
225 S CAPE HAT   1250   69 73  300/  6/  8 1009.4    5/ 6   5/ 6
41 SE CHARLESTON 1250   72 74  260/ 10/ 14 1005.6    3/ 7   3/ 7

$$



USA.gov is the U.S. government's official web portal to all federal, state and local government web resources and services.